<?xml version="1.0" encoding="utf-8"?>
<gpx xmlns:xsi="http://www.w3.org/2001/XMLSchema-instance" xmlns:xsd="http://www.w3.org/2001/XMLSchema" version="1.1" creator="Shapelink.com" xmlns="http://www.topografix.com/GPX/1/1" xmlns:gpxtpx="http://www.garmin.com/xmlschemas/TrackPointExtension/v1">
  <metadata>
    <name>Walking 2.77 km, 2025-11-08</name>
    <desc></desc>
    <author><name>Urban Kalla</name></author> 
    <time>1970-01-01T01:00:00Z</time>
  </metadata>
  <trk>
    <name>Walking 2.77 km, 2025-11-08</name>
    <trkseg>
      <trkpt lat="67.407295" lon="22.140327">
        <ele>259.143</ele>
        <time>1970-01-01T01:00:00Z</time>
      </trkpt>
      <trkpt lat="67.407326" lon="22.140104">
        <ele>259.375</ele>
        <time>1970-01-01T01:00:00Z</time>
      </trkpt>
      <trkpt lat="67.40735" lon="22.139906">
        <ele>259.556</ele>
        <time>1970-01-01T01:00:00Z</time>
      </trkpt>
      <trkpt lat="67.40738" lon="22.139706">
        <ele>259.8</ele>
        <time>1970-01-01T01:00:00Z</time>
      </trkpt>
      <trkpt lat="67.40741" lon="22.1395">
        <ele>260.091</ele>
        <time>1970-01-01T01:00:00Z</time>
      </trkpt>
      <trkpt lat="67.40745" lon="22.139288">
        <ele>260.545</ele>
        <time>1970-01-01T01:00:00Z</time>
      </trkpt>
      <trkpt lat="67.40748" lon="22.139069">
        <ele>261</ele>
        <time>1970-01-01T01:00:00Z</time>
      </trkpt>
      <trkpt lat="67.40751" lon="22.138851">
        <ele>261.455</ele>
        <time>1970-01-01T01:00:00Z</time>
      </trkpt>
      <trkpt lat="67.40755" lon="22.13866">
        <ele>262</ele>
        <time>1970-01-01T01:00:00Z</time>
      </trkpt>
      <trkpt lat="67.40758" lon="22.138454">
        <ele>262.545</ele>
        <time>1970-01-01T01:00:00Z</time>
      </trkpt>
      <trkpt lat="67.40761" lon="22.138254">
        <ele>263.091</ele>
        <time>1970-01-01T01:00:00Z</time>
      </trkpt>
      <trkpt lat="67.40764" lon="22.13806">
        <ele>263.545</ele>
        <time>1970-01-01T01:00:00Z</time>
      </trkpt>
      <trkpt lat="67.40767" lon="22.137857">
        <ele>264.091</ele>
        <time>1970-01-01T01:00:00Z</time>
      </trkpt>
      <trkpt lat="67.40769" lon="22.137634">
        <ele>264.636</ele>
        <time>1970-01-01T01:00:00Z</time>
      </trkpt>
      <trkpt lat="67.40772" lon="22.137432">
        <ele>265.182</ele>
        <time>1970-01-01T01:00:00Z</time>
      </trkpt>
      <trkpt lat="67.40775" lon="22.137236">
        <ele>265.636</ele>
        <time>1970-01-01T01:00:00Z</time>
      </trkpt>
      <trkpt lat="67.40778" lon="22.13703">
        <ele>266.182</ele>
        <time>1970-01-01T01:00:00Z</time>
      </trkpt>
      <trkpt lat="67.407814" lon="22.136814">
        <ele>266.727</ele>
        <time>1970-01-01T01:00:00Z</time>
      </trkpt>
      <trkpt lat="67.407845" lon="22.136614">
        <ele>267.182</ele>
        <time>1970-01-01T01:00:00Z</time>
      </trkpt>
      <trkpt lat="67.40787" lon="22.13641">
        <ele>267.455</ele>
        <time>1970-01-01T01:00:00Z</time>
      </trkpt>
      <trkpt lat="67.407906" lon="22.136213">
        <ele>267.727</ele>
        <time>1970-01-01T01:00:00Z</time>
      </trkpt>
      <trkpt lat="67.40793" lon="22.136005">
        <ele>267.909</ele>
        <time>1970-01-01T01:00:00Z</time>
      </trkpt>
      <trkpt lat="67.40795" lon="22.135784">
        <ele>268.091</ele>
        <time>1970-01-01T01:00:00Z</time>
      </trkpt>
      <trkpt lat="67.40797" lon="22.135569">
        <ele>268.182</ele>
        <time>1970-01-01T01:00:00Z</time>
      </trkpt>
      <trkpt lat="67.407974" lon="22.135351">
        <ele>268.273</ele>
        <time>1970-01-01T01:00:00Z</time>
      </trkpt>
      <trkpt lat="67.40799" lon="22.135134">
        <ele>268.273</ele>
        <time>1970-01-01T01:00:00Z</time>
      </trkpt>
      <trkpt lat="67.408" lon="22.134916">
        <ele>268.273</ele>
        <time>1970-01-01T01:00:00Z</time>
      </trkpt>
      <trkpt lat="67.408" lon="22.134684">
        <ele>268.182</ele>
        <time>1970-01-01T01:00:00Z</time>
      </trkpt>
      <trkpt lat="67.408" lon="22.13446">
        <ele>268.091</ele>
        <time>1970-01-01T01:00:00Z</time>
      </trkpt>
      <trkpt lat="67.408005" lon="22.134226">
        <ele>268</ele>
        <time>1970-01-01T01:00:00Z</time>
      </trkpt>
      <trkpt lat="67.408005" lon="22.133999">
        <ele>268</ele>
        <time>1970-01-01T01:00:00Z</time>
      </trkpt>
      <trkpt lat="67.40801" lon="22.13378">
        <ele>268</ele>
        <time>1970-01-01T01:00:00Z</time>
      </trkpt>
      <trkpt lat="67.40801" lon="22.133558">
        <ele>268</ele>
        <time>1970-01-01T01:00:00Z</time>
      </trkpt>
      <trkpt lat="67.40802" lon="22.133335">
        <ele>268</ele>
        <time>1970-01-01T01:00:00Z</time>
      </trkpt>
      <trkpt lat="67.40803" lon="22.133112">
        <ele>268</ele>
        <time>1970-01-01T01:00:00Z</time>
      </trkpt>
      <trkpt lat="67.408035" lon="22.133106">
        <ele>268</ele>
        <time>1970-01-01T01:00:00Z</time>
      </trkpt>
      <trkpt lat="67.40804" lon="22.13289">
        <ele>267.857</ele>
        <time>1970-01-01T01:00:00Z</time>
      </trkpt>
      <trkpt lat="67.40805" lon="22.132652">
        <ele>267.875</ele>
        <time>1970-01-01T01:00:00Z</time>
      </trkpt>
      <trkpt lat="67.40806" lon="22.13243">
        <ele>267.889</ele>
        <time>1970-01-01T01:00:00Z</time>
      </trkpt>
      <trkpt lat="67.40807" lon="22.132212">
        <ele>267.9</ele>
        <time>1970-01-01T01:00:00Z</time>
      </trkpt>
      <trkpt lat="67.40809" lon="22.131987">
        <ele>267.909</ele>
        <time>1970-01-01T01:00:00Z</time>
      </trkpt>
      <trkpt lat="67.408104" lon="22.131779">
        <ele>267.909</ele>
        <time>1970-01-01T01:00:00Z</time>
      </trkpt>
      <trkpt lat="67.40813" lon="22.131567">
        <ele>267.909</ele>
        <time>1970-01-01T01:00:00Z</time>
      </trkpt>
      <trkpt lat="67.40815" lon="22.131348">
        <ele>267.909</ele>
        <time>1970-01-01T01:00:00Z</time>
      </trkpt>
      <trkpt lat="67.40818" lon="22.131136">
        <ele>268</ele>
        <time>1970-01-01T01:00:00Z</time>
      </trkpt>
      <trkpt lat="67.408226" lon="22.130936">
        <ele>268.182</ele>
        <time>1970-01-01T01:00:00Z</time>
      </trkpt>
      <trkpt lat="67.408264" lon="22.130747">
        <ele>268.273</ele>
        <time>1970-01-01T01:00:00Z</time>
      </trkpt>
      <trkpt lat="67.40832" lon="22.130548">
        <ele>268.364</ele>
        <time>1970-01-01T01:00:00Z</time>
      </trkpt>
      <trkpt lat="67.40836" lon="22.13036">
        <ele>268.455</ele>
        <time>1970-01-01T01:00:00Z</time>
      </trkpt>
      <trkpt lat="67.40842" lon="22.130186">
        <ele>268.545</ele>
        <time>1970-01-01T01:00:00Z</time>
      </trkpt>
      <trkpt lat="67.40846" lon="22.13001">
        <ele>268.636</ele>
        <time>1970-01-01T01:00:00Z</time>
      </trkpt>
      <trkpt lat="67.40851" lon="22.129812">
        <ele>268.727</ele>
        <time>1970-01-01T01:00:00Z</time>
      </trkpt>
      <trkpt lat="67.408554" lon="22.129633">
        <ele>268.818</ele>
        <time>1970-01-01T01:00:00Z</time>
      </trkpt>
      <trkpt lat="67.40861" lon="22.12945">
        <ele>268.909</ele>
        <time>1970-01-01T01:00:00Z</time>
      </trkpt>
      <trkpt lat="67.40866" lon="22.129261">
        <ele>269</ele>
        <time>1970-01-01T01:00:00Z</time>
      </trkpt>
      <trkpt lat="67.408714" lon="22.129084">
        <ele>269</ele>
        <time>1970-01-01T01:00:00Z</time>
      </trkpt>
      <trkpt lat="67.40877" lon="22.128897">
        <ele>269</ele>
        <time>1970-01-01T01:00:00Z</time>
      </trkpt>
      <trkpt lat="67.40883" lon="22.128736">
        <ele>269</ele>
        <time>1970-01-01T01:00:00Z</time>
      </trkpt>
      <trkpt lat="67.40888" lon="22.12856">
        <ele>269</ele>
        <time>1970-01-01T01:00:00Z</time>
      </trkpt>
      <trkpt lat="67.40894" lon="22.12839">
        <ele>269</ele>
        <time>1970-01-01T01:00:00Z</time>
      </trkpt>
      <trkpt lat="67.409004" lon="22.128239">
        <ele>269.091</ele>
        <time>1970-01-01T01:00:00Z</time>
      </trkpt>
      <trkpt lat="67.40906" lon="22.128084">
        <ele>269.182</ele>
        <time>1970-01-01T01:00:00Z</time>
      </trkpt>
      <trkpt lat="67.40912" lon="22.127935">
        <ele>269.273</ele>
        <time>1970-01-01T01:00:00Z</time>
      </trkpt>
      <trkpt lat="67.40919" lon="22.127787">
        <ele>269.364</ele>
        <time>1970-01-01T01:00:00Z</time>
      </trkpt>
      <trkpt lat="67.40925" lon="22.127645">
        <ele>269.455</ele>
        <time>1970-01-01T01:00:00Z</time>
      </trkpt>
      <trkpt lat="67.40931" lon="22.127506">
        <ele>269.545</ele>
        <time>1970-01-01T01:00:00Z</time>
      </trkpt>
      <trkpt lat="67.409386" lon="22.127403">
        <ele>269.636</ele>
        <time>1970-01-01T01:00:00Z</time>
      </trkpt>
      <trkpt lat="67.409454" lon="22.127268">
        <ele>269.727</ele>
        <time>1970-01-01T01:00:00Z</time>
      </trkpt>
      <trkpt lat="67.40954" lon="22.127182">
        <ele>269.909</ele>
        <time>1970-01-01T01:00:00Z</time>
      </trkpt>
      <trkpt lat="67.40961" lon="22.127048">
        <ele>270.091</ele>
        <time>1970-01-01T01:00:00Z</time>
      </trkpt>
      <trkpt lat="67.409676" lon="22.12693">
        <ele>270.273</ele>
        <time>1970-01-01T01:00:00Z</time>
      </trkpt>
      <trkpt lat="67.409744" lon="22.126793">
        <ele>270.364</ele>
        <time>1970-01-01T01:00:00Z</time>
      </trkpt>
      <trkpt lat="67.40981" lon="22.126665">
        <ele>270.455</ele>
        <time>1970-01-01T01:00:00Z</time>
      </trkpt>
      <trkpt lat="67.40988" lon="22.126534">
        <ele>270.545</ele>
        <time>1970-01-01T01:00:00Z</time>
      </trkpt>
      <trkpt lat="67.40995" lon="22.126402">
        <ele>270.636</ele>
        <time>1970-01-01T01:00:00Z</time>
      </trkpt>
      <trkpt lat="67.41002" lon="22.126266">
        <ele>270.727</ele>
        <time>1970-01-01T01:00:00Z</time>
      </trkpt>
      <trkpt lat="67.41009" lon="22.126118">
        <ele>270.818</ele>
        <time>1970-01-01T01:00:00Z</time>
      </trkpt>
      <trkpt lat="67.410164" lon="22.126005">
        <ele>271</ele>
        <time>1970-01-01T01:00:00Z</time>
      </trkpt>
      <trkpt lat="67.410225" lon="22.125845">
        <ele>271.182</ele>
        <time>1970-01-01T01:00:00Z</time>
      </trkpt>
      <trkpt lat="67.410286" lon="22.125679">
        <ele>271.273</ele>
        <time>1970-01-01T01:00:00Z</time>
      </trkpt>
      <trkpt lat="67.41034" lon="22.125525">
        <ele>271.364</ele>
        <time>1970-01-01T01:00:00Z</time>
      </trkpt>
      <trkpt lat="67.41039" lon="22.125338">
        <ele>271.455</ele>
        <time>1970-01-01T01:00:00Z</time>
      </trkpt>
      <trkpt lat="67.41043" lon="22.125137">
        <ele>271.545</ele>
        <time>1970-01-01T01:00:00Z</time>
      </trkpt>
      <trkpt lat="67.41048" lon="22.12494">
        <ele>271.6</ele>
        <time>1970-01-01T01:00:00Z</time>
      </trkpt>
      <trkpt lat="67.41052" lon="22.124754">
        <ele>271.667</ele>
        <time>1970-01-01T01:00:00Z</time>
      </trkpt>
      <trkpt lat="67.41056" lon="22.124546">
        <ele>271.75</ele>
        <time>1970-01-01T01:00:00Z</time>
      </trkpt>
      <trkpt lat="67.4106" lon="22.124344">
        <ele>271.857</ele>
        <time>1970-01-01T01:00:00Z</time>
      </trkpt>
      <trkpt lat="67.41063" lon="22.124214">
        <ele>272</ele>
        <time>1970-01-01T01:00:00Z</time>
      </trkpt>
      <trkpt lat="67.41064" lon="22.12414">
        <ele>272.714</ele>
        <time>1970-01-01T01:00:00Z</time>
      </trkpt>
      <trkpt lat="67.41067" lon="22.12392">
        <ele>272.75</ele>
        <time>1970-01-01T01:00:00Z</time>
      </trkpt>
      <trkpt lat="67.410706" lon="22.123713">
        <ele>272.778</ele>
        <time>1970-01-01T01:00:00Z</time>
      </trkpt>
      <trkpt lat="67.410736" lon="22.123503">
        <ele>272.8</ele>
        <time>1970-01-01T01:00:00Z</time>
      </trkpt>
      <trkpt lat="67.41077" lon="22.123304">
        <ele>272.818</ele>
        <time>1970-01-01T01:00:00Z</time>
      </trkpt>
      <trkpt lat="67.41081" lon="22.12311">
        <ele>272.909</ele>
        <time>1970-01-01T01:00:00Z</time>
      </trkpt>
      <trkpt lat="67.41085" lon="22.122904">
        <ele>273</ele>
        <time>1970-01-01T01:00:00Z</time>
      </trkpt>
      <trkpt lat="67.41089" lon="22.122702">
        <ele>273</ele>
        <time>1970-01-01T01:00:00Z</time>
      </trkpt>
      <trkpt lat="67.41092" lon="22.122505">
        <ele>273</ele>
        <time>1970-01-01T01:00:00Z</time>
      </trkpt>
      <trkpt lat="67.410965" lon="22.12232">
        <ele>273</ele>
        <time>1970-01-01T01:00:00Z</time>
      </trkpt>
      <trkpt lat="67.411" lon="22.122114">
        <ele>273</ele>
        <time>1970-01-01T01:00:00Z</time>
      </trkpt>
      <trkpt lat="67.41103" lon="22.121906">
        <ele>273</ele>
        <time>1970-01-01T01:00:00Z</time>
      </trkpt>
      <trkpt lat="67.41108" lon="22.1217">
        <ele>273.091</ele>
        <time>1970-01-01T01:00:00Z</time>
      </trkpt>
      <trkpt lat="67.41112" lon="22.121508">
        <ele>273.182</ele>
        <time>1970-01-01T01:00:00Z</time>
      </trkpt>
      <trkpt lat="67.411156" lon="22.121315">
        <ele>273.273</ele>
        <time>1970-01-01T01:00:00Z</time>
      </trkpt>
      <trkpt lat="67.41119" lon="22.121101">
        <ele>273.364</ele>
        <time>1970-01-01T01:00:00Z</time>
      </trkpt>
      <trkpt lat="67.411224" lon="22.120901">
        <ele>273.455</ele>
        <time>1970-01-01T01:00:00Z</time>
      </trkpt>
      <trkpt lat="67.411255" lon="22.120699">
        <ele>273.5</ele>
        <time>1970-01-01T01:00:00Z</time>
      </trkpt>
      <trkpt lat="67.41129" lon="22.120487">
        <ele>273.556</ele>
        <time>1970-01-01T01:00:00Z</time>
      </trkpt>
      <trkpt lat="67.41132" lon="22.120285">
        <ele>273.625</ele>
        <time>1970-01-01T01:00:00Z</time>
      </trkpt>
      <trkpt lat="67.41136" lon="22.120068">
        <ele>273.714</ele>
        <time>1970-01-01T01:00:00Z</time>
      </trkpt>
      <trkpt lat="67.41139" lon="22.11998">
        <ele>273.833</ele>
        <time>1970-01-01T01:00:00Z</time>
      </trkpt>
      <trkpt lat="67.41142" lon="22.119905">
        <ele>274</ele>
        <time>1970-01-01T01:00:00Z</time>
      </trkpt>
      <trkpt lat="67.41145" lon="22.119703">
        <ele>274</ele>
        <time>1970-01-01T01:00:00Z</time>
      </trkpt>
      <trkpt lat="67.41148" lon="22.119509">
        <ele>274</ele>
        <time>1970-01-01T01:00:00Z</time>
      </trkpt>
      <trkpt lat="67.41153" lon="22.1193">
        <ele>274</ele>
        <time>1970-01-01T01:00:00Z</time>
      </trkpt>
      <trkpt lat="67.41156" lon="22.119108">
        <ele>274</ele>
        <time>1970-01-01T01:00:00Z</time>
      </trkpt>
      <trkpt lat="67.4116" lon="22.118916">
        <ele>274</ele>
        <time>1970-01-01T01:00:00Z</time>
      </trkpt>
      <trkpt lat="67.41164" lon="22.118729">
        <ele>274.091</ele>
        <time>1970-01-01T01:00:00Z</time>
      </trkpt>
      <trkpt lat="67.41167" lon="22.118513">
        <ele>274.182</ele>
        <time>1970-01-01T01:00:00Z</time>
      </trkpt>
      <trkpt lat="67.411705" lon="22.118322">
        <ele>274.273</ele>
        <time>1970-01-01T01:00:00Z</time>
      </trkpt>
      <trkpt lat="67.41174" lon="22.118124">
        <ele>274.364</ele>
        <time>1970-01-01T01:00:00Z</time>
      </trkpt>
      <trkpt lat="67.41178" lon="22.117935">
        <ele>274.455</ele>
        <time>1970-01-01T01:00:00Z</time>
      </trkpt>
      <trkpt lat="67.41183" lon="22.117735">
        <ele>274.545</ele>
        <time>1970-01-01T01:00:00Z</time>
      </trkpt>
      <trkpt lat="67.41186" lon="22.117523">
        <ele>274.636</ele>
        <time>1970-01-01T01:00:00Z</time>
      </trkpt>
      <trkpt lat="67.411896" lon="22.117329">
        <ele>274.727</ele>
        <time>1970-01-01T01:00:00Z</time>
      </trkpt>
      <trkpt lat="67.411934" lon="22.117126">
        <ele>274.909</ele>
        <time>1970-01-01T01:00:00Z</time>
      </trkpt>
      <trkpt lat="67.41197" lon="22.116932">
        <ele>275.091</ele>
        <time>1970-01-01T01:00:00Z</time>
      </trkpt>
      <trkpt lat="67.41201" lon="22.116726">
        <ele>275.273</ele>
        <time>1970-01-01T01:00:00Z</time>
      </trkpt>
      <trkpt lat="67.41205" lon="22.116524">
        <ele>275.364</ele>
        <time>1970-01-01T01:00:00Z</time>
      </trkpt>
      <trkpt lat="67.41209" lon="22.116331">
        <ele>275.455</ele>
        <time>1970-01-01T01:00:00Z</time>
      </trkpt>
      <trkpt lat="67.412125" lon="22.11614">
        <ele>275.545</ele>
        <time>1970-01-01T01:00:00Z</time>
      </trkpt>
      <trkpt lat="67.41216" lon="22.11593">
        <ele>275.636</ele>
        <time>1970-01-01T01:00:00Z</time>
      </trkpt>
      <trkpt lat="67.41219" lon="22.115725">
        <ele>275.727</ele>
        <time>1970-01-01T01:00:00Z</time>
      </trkpt>
      <trkpt lat="67.41225" lon="22.115557">
        <ele>275.909</ele>
        <time>1970-01-01T01:00:00Z</time>
      </trkpt>
      <trkpt lat="67.412285" lon="22.115345">
        <ele>276.091</ele>
        <time>1970-01-01T01:00:00Z</time>
      </trkpt>
      <trkpt lat="67.412315" lon="22.11513">
        <ele>276.273</ele>
        <time>1970-01-01T01:00:00Z</time>
      </trkpt>
      <trkpt lat="67.412346" lon="22.114927">
        <ele>276.364</ele>
        <time>1970-01-01T01:00:00Z</time>
      </trkpt>
      <trkpt lat="67.41238" lon="22.114714">
        <ele>276.455</ele>
        <time>1970-01-01T01:00:00Z</time>
      </trkpt>
      <trkpt lat="67.4124" lon="22.1145">
        <ele>276.5</ele>
        <time>1970-01-01T01:00:00Z</time>
      </trkpt>
      <trkpt lat="67.41242" lon="22.114294">
        <ele>276.556</ele>
        <time>1970-01-01T01:00:00Z</time>
      </trkpt>
      <trkpt lat="67.41245" lon="22.114088">
        <ele>276.625</ele>
        <time>1970-01-01T01:00:00Z</time>
      </trkpt>
      <trkpt lat="67.41247" lon="22.11387">
        <ele>276.714</ele>
        <time>1970-01-01T01:00:00Z</time>
      </trkpt>
      <trkpt lat="67.4125" lon="22.113758">
        <ele>276.833</ele>
        <time>1970-01-01T01:00:00Z</time>
      </trkpt>
      <trkpt lat="67.41252" lon="22.113678">
        <ele>277</ele>
        <time>1970-01-01T01:00:00Z</time>
      </trkpt>
      <trkpt lat="67.41254" lon="22.113464">
        <ele>277</ele>
        <time>1970-01-01T01:00:00Z</time>
      </trkpt>
      <trkpt lat="67.41256" lon="22.113241">
        <ele>277.111</ele>
        <time>1970-01-01T01:00:00Z</time>
      </trkpt>
      <trkpt lat="67.41258" lon="22.113022">
        <ele>277.2</ele>
        <time>1970-01-01T01:00:00Z</time>
      </trkpt>
      <trkpt lat="67.412605" lon="22.112812">
        <ele>277.273</ele>
        <time>1970-01-01T01:00:00Z</time>
      </trkpt>
      <trkpt lat="67.41263" lon="22.1126">
        <ele>277.364</ele>
        <time>1970-01-01T01:00:00Z</time>
      </trkpt>
      <trkpt lat="67.41266" lon="22.112385">
        <ele>277.455</ele>
        <time>1970-01-01T01:00:00Z</time>
      </trkpt>
      <trkpt lat="67.412674" lon="22.112173">
        <ele>277.545</ele>
        <time>1970-01-01T01:00:00Z</time>
      </trkpt>
      <trkpt lat="67.4127" lon="22.11196">
        <ele>277.6</ele>
        <time>1970-01-01T01:00:00Z</time>
      </trkpt>
      <trkpt lat="67.41272" lon="22.111742">
        <ele>277.667</ele>
        <time>1970-01-01T01:00:00Z</time>
      </trkpt>
      <trkpt lat="67.41274" lon="22.111519">
        <ele>277.75</ele>
        <time>1970-01-01T01:00:00Z</time>
      </trkpt>
      <trkpt lat="67.41276" lon="22.111303">
        <ele>277.857</ele>
        <time>1970-01-01T01:00:00Z</time>
      </trkpt>
      <trkpt lat="67.41277" lon="22.111242">
        <ele>278</ele>
        <time>1970-01-01T01:00:00Z</time>
      </trkpt>
      <trkpt lat="67.41274" lon="22.111515">
        <ele>277.714</ele>
        <time>1970-01-01T01:00:00Z</time>
      </trkpt>
      <trkpt lat="67.41273" lon="22.11174">
        <ele>277.625</ele>
        <time>1970-01-01T01:00:00Z</time>
      </trkpt>
      <trkpt lat="67.41271" lon="22.11195">
        <ele>277.556</ele>
        <time>1970-01-01T01:00:00Z</time>
      </trkpt>
      <trkpt lat="67.4127" lon="22.112173">
        <ele>277.5</ele>
        <time>1970-01-01T01:00:00Z</time>
      </trkpt>
      <trkpt lat="67.412674" lon="22.112383">
        <ele>277.455</ele>
        <time>1970-01-01T01:00:00Z</time>
      </trkpt>
      <trkpt lat="67.41265" lon="22.112593">
        <ele>277.364</ele>
        <time>1970-01-01T01:00:00Z</time>
      </trkpt>
      <trkpt lat="67.41262" lon="22.11281">
        <ele>277.273</ele>
        <time>1970-01-01T01:00:00Z</time>
      </trkpt>
      <trkpt lat="67.4126" lon="22.113014">
        <ele>277.182</ele>
        <time>1970-01-01T01:00:00Z</time>
      </trkpt>
      <trkpt lat="67.41257" lon="22.11321">
        <ele>277.091</ele>
        <time>1970-01-01T01:00:00Z</time>
      </trkpt>
      <trkpt lat="67.41254" lon="22.113413">
        <ele>277</ele>
        <time>1970-01-01T01:00:00Z</time>
      </trkpt>
      <trkpt lat="67.41251" lon="22.113626">
        <ele>276.909</ele>
        <time>1970-01-01T01:00:00Z</time>
      </trkpt>
      <trkpt lat="67.41249" lon="22.113836">
        <ele>276.818</ele>
        <time>1970-01-01T01:00:00Z</time>
      </trkpt>
      <trkpt lat="67.41247" lon="22.11406">
        <ele>276.727</ele>
        <time>1970-01-01T01:00:00Z</time>
      </trkpt>
      <trkpt lat="67.41244" lon="22.114277">
        <ele>276.636</ele>
        <time>1970-01-01T01:00:00Z</time>
      </trkpt>
      <trkpt lat="67.412415" lon="22.114492">
        <ele>276.545</ele>
        <time>1970-01-01T01:00:00Z</time>
      </trkpt>
      <trkpt lat="67.412384" lon="22.114689">
        <ele>276.455</ele>
        <time>1970-01-01T01:00:00Z</time>
      </trkpt>
      <trkpt lat="67.41235" lon="22.1149">
        <ele>276.364</ele>
        <time>1970-01-01T01:00:00Z</time>
      </trkpt>
      <trkpt lat="67.412315" lon="22.115103">
        <ele>276.273</ele>
        <time>1970-01-01T01:00:00Z</time>
      </trkpt>
      <trkpt lat="67.412285" lon="22.115305">
        <ele>276.091</ele>
        <time>1970-01-01T01:00:00Z</time>
      </trkpt>
      <trkpt lat="67.412254" lon="22.115501">
        <ele>275.909</ele>
        <time>1970-01-01T01:00:00Z</time>
      </trkpt>
      <trkpt lat="67.41221" lon="22.115694">
        <ele>275.727</ele>
        <time>1970-01-01T01:00:00Z</time>
      </trkpt>
      <trkpt lat="67.41218" lon="22.11589">
        <ele>275.636</ele>
        <time>1970-01-01T01:00:00Z</time>
      </trkpt>
      <trkpt lat="67.41214" lon="22.116081">
        <ele>275.545</ele>
        <time>1970-01-01T01:00:00Z</time>
      </trkpt>
      <trkpt lat="67.412094" lon="22.116282">
        <ele>275.455</ele>
        <time>1970-01-01T01:00:00Z</time>
      </trkpt>
      <trkpt lat="67.412056" lon="22.116486">
        <ele>275.364</ele>
        <time>1970-01-01T01:00:00Z</time>
      </trkpt>
      <trkpt lat="67.41202" lon="22.116678">
        <ele>275.273</ele>
        <time>1970-01-01T01:00:00Z</time>
      </trkpt>
      <trkpt lat="67.41198" lon="22.116884">
        <ele>275.091</ele>
        <time>1970-01-01T01:00:00Z</time>
      </trkpt>
      <trkpt lat="67.41195" lon="22.117077">
        <ele>274.909</ele>
        <time>1970-01-01T01:00:00Z</time>
      </trkpt>
      <trkpt lat="67.41191" lon="22.117281">
        <ele>274.727</ele>
        <time>1970-01-01T01:00:00Z</time>
      </trkpt>
      <trkpt lat="67.41186" lon="22.117464">
        <ele>274.636</ele>
        <time>1970-01-01T01:00:00Z</time>
      </trkpt>
      <trkpt lat="67.41183" lon="22.11768">
        <ele>274.545</ele>
        <time>1970-01-01T01:00:00Z</time>
      </trkpt>
      <trkpt lat="67.41179" lon="22.117876">
        <ele>274.455</ele>
        <time>1970-01-01T01:00:00Z</time>
      </trkpt>
      <trkpt lat="67.41176" lon="22.118067">
        <ele>274.364</ele>
        <time>1970-01-01T01:00:00Z</time>
      </trkpt>
      <trkpt lat="67.41171" lon="22.11827">
        <ele>274.273</ele>
        <time>1970-01-01T01:00:00Z</time>
      </trkpt>
      <trkpt lat="67.41168" lon="22.118464">
        <ele>274.182</ele>
        <time>1970-01-01T01:00:00Z</time>
      </trkpt>
      <trkpt lat="67.411644" lon="22.118668">
        <ele>274.091</ele>
        <time>1970-01-01T01:00:00Z</time>
      </trkpt>
      <trkpt lat="67.411606" lon="22.118885">
        <ele>274</ele>
        <time>1970-01-01T01:00:00Z</time>
      </trkpt>
      <trkpt lat="67.41157" lon="22.119087">
        <ele>274</ele>
        <time>1970-01-01T01:00:00Z</time>
      </trkpt>
      <trkpt lat="67.41152" lon="22.119286">
        <ele>274</ele>
        <time>1970-01-01T01:00:00Z</time>
      </trkpt>
      <trkpt lat="67.41148" lon="22.119482">
        <ele>274</ele>
        <time>1970-01-01T01:00:00Z</time>
      </trkpt>
      <trkpt lat="67.411446" lon="22.11969">
        <ele>274</ele>
        <time>1970-01-01T01:00:00Z</time>
      </trkpt>
      <trkpt lat="67.41141" lon="22.119886">
        <ele>273.909</ele>
        <time>1970-01-01T01:00:00Z</time>
      </trkpt>
      <trkpt lat="67.41137" lon="22.120096">
        <ele>273.818</ele>
        <time>1970-01-01T01:00:00Z</time>
      </trkpt>
      <trkpt lat="67.41134" lon="22.120298">
        <ele>273.727</ele>
        <time>1970-01-01T01:00:00Z</time>
      </trkpt>
      <trkpt lat="67.4113" lon="22.120504">
        <ele>273.636</ele>
        <time>1970-01-01T01:00:00Z</time>
      </trkpt>
      <trkpt lat="67.41127" lon="22.120714">
        <ele>273.545</ele>
        <time>1970-01-01T01:00:00Z</time>
      </trkpt>
      <trkpt lat="67.41123" lon="22.120914">
        <ele>273.455</ele>
        <time>1970-01-01T01:00:00Z</time>
      </trkpt>
      <trkpt lat="67.41119" lon="22.121117">
        <ele>273.364</ele>
        <time>1970-01-01T01:00:00Z</time>
      </trkpt>
      <trkpt lat="67.411156" lon="22.121326">
        <ele>273.273</ele>
        <time>1970-01-01T01:00:00Z</time>
      </trkpt>
      <trkpt lat="67.41112" lon="22.121521">
        <ele>273.182</ele>
        <time>1970-01-01T01:00:00Z</time>
      </trkpt>
      <trkpt lat="67.41108" lon="22.121716">
        <ele>273.091</ele>
        <time>1970-01-01T01:00:00Z</time>
      </trkpt>
      <trkpt lat="67.41105" lon="22.121927">
        <ele>273</ele>
        <time>1970-01-01T01:00:00Z</time>
      </trkpt>
      <trkpt lat="67.41101" lon="22.122133">
        <ele>273</ele>
        <time>1970-01-01T01:00:00Z</time>
      </trkpt>
      <trkpt lat="67.41097" lon="22.122347">
        <ele>273</ele>
        <time>1970-01-01T01:00:00Z</time>
      </trkpt>
      <trkpt lat="67.41094" lon="22.122541">
        <ele>273</ele>
        <time>1970-01-01T01:00:00Z</time>
      </trkpt>
      <trkpt lat="67.410904" lon="22.12273">
        <ele>273</ele>
        <time>1970-01-01T01:00:00Z</time>
      </trkpt>
      <trkpt lat="67.41086" lon="22.122917">
        <ele>273</ele>
        <time>1970-01-01T01:00:00Z</time>
      </trkpt>
      <trkpt lat="67.41082" lon="22.12312">
        <ele>272.909</ele>
        <time>1970-01-01T01:00:00Z</time>
      </trkpt>
      <trkpt lat="67.41078" lon="22.123327">
        <ele>272.818</ele>
        <time>1970-01-01T01:00:00Z</time>
      </trkpt>
      <trkpt lat="67.410736" lon="22.123512">
        <ele>272.727</ele>
        <time>1970-01-01T01:00:00Z</time>
      </trkpt>
      <trkpt lat="67.4107" lon="22.12372">
        <ele>272.636</ele>
        <time>1970-01-01T01:00:00Z</time>
      </trkpt>
      <trkpt lat="67.41067" lon="22.123924">
        <ele>272.545</ele>
        <time>1970-01-01T01:00:00Z</time>
      </trkpt>
      <trkpt lat="67.41062" lon="22.124132">
        <ele>272.455</ele>
        <time>1970-01-01T01:00:00Z</time>
      </trkpt>
      <trkpt lat="67.41058" lon="22.124338">
        <ele>272.273</ele>
        <time>1970-01-01T01:00:00Z</time>
      </trkpt>
      <trkpt lat="67.410545" lon="22.12454">
        <ele>272.091</ele>
        <time>1970-01-01T01:00:00Z</time>
      </trkpt>
      <trkpt lat="67.4105" lon="22.124735">
        <ele>271.909</ele>
        <time>1970-01-01T01:00:00Z</time>
      </trkpt>
      <trkpt lat="67.41046" lon="22.124937">
        <ele>271.727</ele>
        <time>1970-01-01T01:00:00Z</time>
      </trkpt>
      <trkpt lat="67.410416" lon="22.125128">
        <ele>271.545</ele>
        <time>1970-01-01T01:00:00Z</time>
      </trkpt>
      <trkpt lat="67.41037" lon="22.125307">
        <ele>271.455</ele>
        <time>1970-01-01T01:00:00Z</time>
      </trkpt>
      <trkpt lat="67.41032" lon="22.125477">
        <ele>271.364</ele>
        <time>1970-01-01T01:00:00Z</time>
      </trkpt>
      <trkpt lat="67.410255" lon="22.125645">
        <ele>271.273</ele>
        <time>1970-01-01T01:00:00Z</time>
      </trkpt>
      <trkpt lat="67.4102" lon="22.125814">
        <ele>271.182</ele>
        <time>1970-01-01T01:00:00Z</time>
      </trkpt>
      <trkpt lat="67.41014" lon="22.125973">
        <ele>271</ele>
        <time>1970-01-01T01:00:00Z</time>
      </trkpt>
      <trkpt lat="67.41007" lon="22.126112">
        <ele>270.818</ele>
        <time>1970-01-01T01:00:00Z</time>
      </trkpt>
      <trkpt lat="67.41001" lon="22.12626">
        <ele>270.727</ele>
        <time>1970-01-01T01:00:00Z</time>
      </trkpt>
      <trkpt lat="67.40995" lon="22.126404">
        <ele>270.636</ele>
        <time>1970-01-01T01:00:00Z</time>
      </trkpt>
      <trkpt lat="67.40988" lon="22.126543">
        <ele>270.545</ele>
        <time>1970-01-01T01:00:00Z</time>
      </trkpt>
      <trkpt lat="67.40981" lon="22.126675">
        <ele>270.455</ele>
        <time>1970-01-01T01:00:00Z</time>
      </trkpt>
      <trkpt lat="67.40974" lon="22.1268">
        <ele>270.364</ele>
        <time>1970-01-01T01:00:00Z</time>
      </trkpt>
      <trkpt lat="67.40966" lon="22.126926">
        <ele>270.3</ele>
        <time>1970-01-01T01:00:00Z</time>
      </trkpt>
      <trkpt lat="67.409584" lon="22.127045">
        <ele>270.222</ele>
        <time>1970-01-01T01:00:00Z</time>
      </trkpt>
      <trkpt lat="67.40951" lon="22.12718">
        <ele>270.125</ele>
        <time>1970-01-01T01:00:00Z</time>
      </trkpt>
      <trkpt lat="67.40944" lon="22.127293">
        <ele>270</ele>
        <time>1970-01-01T01:00:00Z</time>
      </trkpt>
      <trkpt lat="67.4094" lon="22.127348">
        <ele>270</ele>
        <time>1970-01-01T01:00:00Z</time>
      </trkpt>
      <trkpt lat="67.40937" lon="22.127436">
        <ele>269.286</ele>
        <time>1970-01-01T01:00:00Z</time>
      </trkpt>
      <trkpt lat="67.409294" lon="22.12757">
        <ele>269.25</ele>
        <time>1970-01-01T01:00:00Z</time>
      </trkpt>
      <trkpt lat="67.40923" lon="22.127712">
        <ele>269.222</ele>
        <time>1970-01-01T01:00:00Z</time>
      </trkpt>
      <trkpt lat="67.409164" lon="22.127869">
        <ele>269.2</ele>
        <time>1970-01-01T01:00:00Z</time>
      </trkpt>
      <trkpt lat="67.409096" lon="22.128016">
        <ele>269.182</ele>
        <time>1970-01-01T01:00:00Z</time>
      </trkpt>
      <trkpt lat="67.409035" lon="22.128164">
        <ele>269.091</ele>
        <time>1970-01-01T01:00:00Z</time>
      </trkpt>
      <trkpt lat="67.40897" lon="22.128328">
        <ele>269</ele>
        <time>1970-01-01T01:00:00Z</time>
      </trkpt>
      <trkpt lat="67.40891" lon="22.12849">
        <ele>269</ele>
        <time>1970-01-01T01:00:00Z</time>
      </trkpt>
      <trkpt lat="67.40885" lon="22.12865">
        <ele>269</ele>
        <time>1970-01-01T01:00:00Z</time>
      </trkpt>
      <trkpt lat="67.408806" lon="22.12883">
        <ele>269</ele>
        <time>1970-01-01T01:00:00Z</time>
      </trkpt>
      <trkpt lat="67.408745" lon="22.128988">
        <ele>269</ele>
        <time>1970-01-01T01:00:00Z</time>
      </trkpt>
      <trkpt lat="67.4087" lon="22.129173">
        <ele>269</ele>
        <time>1970-01-01T01:00:00Z</time>
      </trkpt>
      <trkpt lat="67.40865" lon="22.129358">
        <ele>268.909</ele>
        <time>1970-01-01T01:00:00Z</time>
      </trkpt>
      <trkpt lat="67.40861" lon="22.129532">
        <ele>268.818</ele>
        <time>1970-01-01T01:00:00Z</time>
      </trkpt>
      <trkpt lat="67.408554" lon="22.12971">
        <ele>268.727</ele>
        <time>1970-01-01T01:00:00Z</time>
      </trkpt>
      <trkpt lat="67.4085" lon="22.129894">
        <ele>268.636</ele>
        <time>1970-01-01T01:00:00Z</time>
      </trkpt>
      <trkpt lat="67.408455" lon="22.130077">
        <ele>268.545</ele>
        <time>1970-01-01T01:00:00Z</time>
      </trkpt>
      <trkpt lat="67.40842" lon="22.130274">
        <ele>268.455</ele>
        <time>1970-01-01T01:00:00Z</time>
      </trkpt>
      <trkpt lat="67.40837" lon="22.13046">
        <ele>268.364</ele>
        <time>1970-01-01T01:00:00Z</time>
      </trkpt>
      <trkpt lat="67.40832" lon="22.13064">
        <ele>268.273</ele>
        <time>1970-01-01T01:00:00Z</time>
      </trkpt>
      <trkpt lat="67.40827" lon="22.13083">
        <ele>268.182</ele>
        <time>1970-01-01T01:00:00Z</time>
      </trkpt>
      <trkpt lat="67.40823" lon="22.131031">
        <ele>268.091</ele>
        <time>1970-01-01T01:00:00Z</time>
      </trkpt>
      <trkpt lat="67.40819" lon="22.131226">
        <ele>267.909</ele>
        <time>1970-01-01T01:00:00Z</time>
      </trkpt>
      <trkpt lat="67.408165" lon="22.131428">
        <ele>267.909</ele>
        <time>1970-01-01T01:00:00Z</time>
      </trkpt>
      <trkpt lat="67.40814" lon="22.131645">
        <ele>267.909</ele>
        <time>1970-01-01T01:00:00Z</time>
      </trkpt>
      <trkpt lat="67.40812" lon="22.13185">
        <ele>267.909</ele>
        <time>1970-01-01T01:00:00Z</time>
      </trkpt>
      <trkpt lat="67.408104" lon="22.132065">
        <ele>267.909</ele>
        <time>1970-01-01T01:00:00Z</time>
      </trkpt>
      <trkpt lat="67.40809" lon="22.132284">
        <ele>267.909</ele>
        <time>1970-01-01T01:00:00Z</time>
      </trkpt>
      <trkpt lat="67.408066" lon="22.1325">
        <ele>267.909</ele>
        <time>1970-01-01T01:00:00Z</time>
      </trkpt>
      <trkpt lat="67.408066" lon="22.132713">
        <ele>267.909</ele>
        <time>1970-01-01T01:00:00Z</time>
      </trkpt>
      <trkpt lat="67.40806" lon="22.132944">
        <ele>267.909</ele>
        <time>1970-01-01T01:00:00Z</time>
      </trkpt>
      <trkpt lat="67.40804" lon="22.133167">
        <ele>267.909</ele>
        <time>1970-01-01T01:00:00Z</time>
      </trkpt>
      <trkpt lat="67.40804" lon="22.133389">
        <ele>267.909</ele>
        <time>1970-01-01T01:00:00Z</time>
      </trkpt>
      <trkpt lat="67.408035" lon="22.13361">
        <ele>268</ele>
        <time>1970-01-01T01:00:00Z</time>
      </trkpt>
      <trkpt lat="67.40803" lon="22.133837">
        <ele>268</ele>
        <time>1970-01-01T01:00:00Z</time>
      </trkpt>
      <trkpt lat="67.40802" lon="22.134052">
        <ele>268</ele>
        <time>1970-01-01T01:00:00Z</time>
      </trkpt>
      <trkpt lat="67.40801" lon="22.134274">
        <ele>268</ele>
        <time>1970-01-01T01:00:00Z</time>
      </trkpt>
      <trkpt lat="67.40801" lon="22.134493">
        <ele>268.091</ele>
        <time>1970-01-01T01:00:00Z</time>
      </trkpt>
      <trkpt lat="67.408005" lon="22.13472">
        <ele>268.182</ele>
        <time>1970-01-01T01:00:00Z</time>
      </trkpt>
      <trkpt lat="67.408" lon="22.134947">
        <ele>268.273</ele>
        <time>1970-01-01T01:00:00Z</time>
      </trkpt>
      <trkpt lat="67.408" lon="22.135172">
        <ele>268.273</ele>
        <time>1970-01-01T01:00:00Z</time>
      </trkpt>
      <trkpt lat="67.40799" lon="22.135399">
        <ele>268.273</ele>
        <time>1970-01-01T01:00:00Z</time>
      </trkpt>
      <trkpt lat="67.40798" lon="22.135609">
        <ele>268.182</ele>
        <time>1970-01-01T01:00:00Z</time>
      </trkpt>
      <trkpt lat="67.40796" lon="22.135818">
        <ele>268</ele>
        <time>1970-01-01T01:00:00Z</time>
      </trkpt>
      <trkpt lat="67.407936" lon="22.136032">
        <ele>267.818</ele>
        <time>1970-01-01T01:00:00Z</time>
      </trkpt>
      <trkpt lat="67.40791" lon="22.136257">
        <ele>267.636</ele>
        <time>1970-01-01T01:00:00Z</time>
      </trkpt>
      <trkpt lat="67.40788" lon="22.136461">
        <ele>267.364</ele>
        <time>1970-01-01T01:00:00Z</time>
      </trkpt>
      <trkpt lat="67.40785" lon="22.136679">
        <ele>267.3</ele>
        <time>1970-01-01T01:00:00Z</time>
      </trkpt>
      <trkpt lat="67.40782" lon="22.136883">
        <ele>267.111</ele>
        <time>1970-01-01T01:00:00Z</time>
      </trkpt>
      <trkpt lat="67.40779" lon="22.137077">
        <ele>266.875</ele>
        <time>1970-01-01T01:00:00Z</time>
      </trkpt>
      <trkpt lat="67.40775" lon="22.137293">
        <ele>266.571</ele>
        <time>1970-01-01T01:00:00Z</time>
      </trkpt>
      <trkpt lat="67.40774" lon="22.137417">
        <ele>266.333</ele>
        <time>1970-01-01T01:00:00Z</time>
      </trkpt>
      <trkpt lat="67.40772" lon="22.137505">
        <ele>265</ele>
        <time>1970-01-01T01:00:00Z</time>
      </trkpt>
      <trkpt lat="67.40771" lon="22.137592">
        <ele>265</ele>
        <time>1970-01-01T01:00:00Z</time>
      </trkpt>
      <trkpt lat="67.40769" lon="22.137703">
        <ele>263.143</ele>
        <time>1970-01-01T01:00:00Z</time>
      </trkpt>
      <trkpt lat="67.40766" lon="22.137913">
        <ele>262.875</ele>
        <time>1970-01-01T01:00:00Z</time>
      </trkpt>
      <trkpt lat="67.40763" lon="22.138123">
        <ele>262.667</ele>
        <time>1970-01-01T01:00:00Z</time>
      </trkpt>
      <trkpt lat="67.4076" lon="22.138332">
        <ele>262.4</ele>
        <time>1970-01-01T01:00:00Z</time>
      </trkpt>
      <trkpt lat="67.40757" lon="22.138546">
        <ele>262.182</ele>
        <time>1970-01-01T01:00:00Z</time>
      </trkpt>
      <trkpt lat="67.40754" lon="22.138748">
        <ele>261.727</ele>
        <time>1970-01-01T01:00:00Z</time>
      </trkpt>
      <trkpt lat="67.4075" lon="22.13894">
        <ele>261.5</ele>
        <time>1970-01-01T01:00:00Z</time>
      </trkpt>
      <trkpt lat="67.40747" lon="22.13914">
        <ele>261.222</ele>
        <time>1970-01-01T01:00:00Z</time>
      </trkpt>
      <trkpt lat="67.40744" lon="22.13935">
        <ele>261</ele>
        <time>1970-01-01T01:00:00Z</time>
      </trkpt>
      <trkpt lat="67.40741" lon="22.139553">
        <ele>260.714</ele>
        <time>1970-01-01T01:00:00Z</time>
      </trkpt>
      <trkpt lat="67.407394" lon="22.139711">
        <ele>260.5</ele>
        <time>1970-01-01T01:00:00Z</time>
      </trkpt>
      <trkpt lat="67.40738" lon="22.139774">
        <ele>258.5</ele>
        <time>1970-01-01T01:00:00Z</time>
      </trkpt>
      <trkpt lat="67.40737" lon="22.139984">
        <ele>258.5</ele>
        <time>1970-01-01T01:00:00Z</time>
      </trkpt>
      <trkpt lat="67.40734" lon="22.14019">
        <ele>258.5</ele>
        <time>1970-01-01T01:00:00Z</time>
      </trkpt>
      <trkpt lat="67.407326" lon="22.14041">
        <ele>258.5</ele>
        <time>1970-01-01T01:00:00Z</time>
      </trkpt>
      <trkpt lat="67.4073" lon="22.140562">
        <ele>258.5</ele>
        <time>1970-01-01T01:00:00Z</time>
      </trkpt>
      <trkpt lat="67.4073" lon="22.140615">
        <ele>257.667</ele>
        <time>1970-01-01T01:00:00Z</time>
      </trkpt>
      <trkpt lat="67.40732" lon="22.140781">
        <ele>257.667</ele>
        <time>1970-01-01T01:00:00Z</time>
      </trkpt>
    </trkseg>
  </trk>
</gpx>